Osijek / Cepin, Croatia

8:39 AM CET on February 20, 2017 (GMT +0100)
Osijek - Cepin

Weather History for LDOS - November, 2012

Change the Weather History Date:

Tuesday, November 20, 2012

  Actual Average Record
Temperature  
Mean Temperature 44 °F -  
Max Temperature 48 °F - - ()
Min Temperature 39 °F - - ()
Degree Days  
Heating Degree Days 22    
Moisture  
Dew Point 42 °F    
Average Humidity 90    
Maximum Humidity 93    
Minimum Humidity 87    
Precipitation  
Precipitation 0.00 in - - ()
Sea Level Pressure  
Sea Level Pressure 30.15 in    
Wind  
Wind Speed 8 mph ()    
Max Wind Speed 14 mph    
Max Gust Speed -    
Visibility 4.3 miles    
Events      
T = Trace of Precipitation, MM = Missing Value Source: Averaged Metar Reports

Daily Weather History Graph

Daily Weather History Graph

Search for Another Location

Airport or City:

Trip Planner

Search our weather history database for the weather conditions in past years. The results will help you decide how hot, cold, wet, or windy it might be!

Date:

Astronomy

Nov. 20, 2012 Rise Set
Actual Time 6:51 AM CET 4:10 PM CET
Civil Twilight 6:19 AM CET 4:42 PM CET
Nautical Twilight 5:42 AM CET 5:19 PM CET
Astronomical Twilight 5:07 AM CET 5:54 PM CET
Moon 12:07 PM CET 11:33 PM CET
Length of Visible Light 10h 23m
Length of Day
9h 18m
Waxing Crescent, 48% of the Moon is Illuminated
Nov 20
Waxing Crescent
Nov 20
First Quarter
Nov 28
Full
Dec 6
Last Quarter
Dec 13
New

Hourly Weather History & Observations

Time (CET) Temp. Windchill Dew Point Humidity Pressure Visibility Wind Dir Wind Speed Gust Speed Precip Events Conditions
12:00 AM 46.4 °F 42.4 °F 44.6 °F 93% 30.12 in - East 8.1 mph - N/A   Clear
12:30 AM 46.4 °F 42.4 °F 44.6 °F 93% 30.12 in - East 8.1 mph - N/A   Clear
1:00 AM 44.6 °F 40.2 °F 42.8 °F 93% 30.12 in - ENE 8.1 mph - N/A   Clear
1:30 AM 44.6 °F 42.2 °F 42.8 °F 93% 30.12 in - ENE 4.6 mph - N/A   Clear
2:00 AM 44.6 °F 40.7 °F 42.8 °F 93% 30.12 in - East 6.9 mph - N/A   Clear
2:30 AM 44.6 °F 40.2 °F 42.8 °F 93% 30.12 in - East 8.1 mph - N/A   Clear
3:00 AM 42.8 °F 38.6 °F 41.0 °F 93% 30.12 in - ENE 6.9 mph - N/A   Clear
3:30 AM 41.0 °F 37.1 °F 39.2 °F 93% 30.12 in - ENE 5.8 mph - N/A   Clear
4:00 AM 39.2 °F 34.2 °F 37.4 °F 93% 30.12 in - NE 6.9 mph - N/A   Clear
4:30 AM 39.2 °F 34.2 °F 37.4 °F 93% 30.12 in - NE 6.9 mph - N/A   Clear
5:00 AM 39.2 °F 34.2 °F 37.4 °F 93% 30.12 in - NE 6.9 mph - N/A   Clear
5:30 AM 39.2 °F 35.0 °F 37.4 °F 93% 30.12 in - NE 5.8 mph - N/A   Clear
6:00 AM 39.2 °F 35.0 °F 37.4 °F 93% 30.12 in - ENE 5.8 mph - N/A   Clear
6:30 AM 39.2 °F 34.2 °F 37.4 °F 93% 30.12 in - NE 6.9 mph - N/A   Clear
7:00 AM 41.0 °F 35.8 °F 39.2 °F 93% 30.15 in - ENE 8.1 mph - N/A   Clear
7:30 AM 41.0 °F 36.4 °F 39.2 °F 93% 30.15 in - ENE 6.9 mph - N/A   Clear
8:00 AM 41.0 °F 36.4 °F 39.2 °F 93% 30.15 in 3.1 mi NE 6.9 mph - N/A   Mist
8:30 AM 41.0 °F 35.8 °F 39.2 °F 93% 30.15 in 3.1 mi ENE 8.1 mph - N/A   Mist
9:00 AM 42.8 °F 37.5 °F 41.0 °F 93% 30.15 in 3.1 mi East 9.2 mph - N/A   Mist
9:30 AM 42.8 °F 37.5 °F 41.0 °F 93% 30.15 in 3.1 mi East 9.2 mph - N/A   Mist
10:00 AM 44.6 °F 39.2 °F 41.0 °F 87% 30.18 in 3.1 mi East 10.4 mph - N/A   Mist
10:30 AM 44.6 °F 38.8 °F 41.0 °F 87% 30.15 in 3.1 mi East 11.5 mph - N/A   Mist
11:00 AM 44.6 °F 38.1 °F 42.8 °F 93% 30.15 in 3.7 mi East 13.8 mph - N/A   Unknown
11:30 AM 44.6 °F 38.8 °F 42.8 °F 93% 30.15 in 3.1 mi ENE 11.5 mph - N/A   Partly Cloudy
12:00 PM 46.4 °F 40.7 °F 42.8 °F 87% 30.15 in 3.1 mi ENE 12.7 mph - N/A   Partly Cloudy
12:30 PM 46.4 °F 40.4 °F 42.8 °F 87% 30.15 in 3.7 mi ENE 13.8 mph - N/A   Partly Cloudy
1:00 PM 46.4 °F 41.1 °F 42.8 °F 87% 30.15 in 3.7 mi ENE 11.5 mph - N/A   Scattered Clouds
1:30 PM 46.4 °F 41.1 °F 42.8 °F 87% 30.15 in 3.7 mi ENE 11.5 mph - N/A   Scattered Clouds
2:00 PM 48.2 °F - 44.6 °F 87% 30.15 in 3.7 mi ENE 11.5 mph - N/A   Partly Cloudy
2:30 PM 48.2 °F - 44.6 °F 87% 30.15 in 3.7 mi ENE 11.5 mph - N/A   Partly Cloudy
3:00 PM 48.2 °F - 44.6 °F 87% 30.15 in 3.1 mi ENE 12.7 mph - N/A   Partly Cloudy
3:30 PM 48.2 °F - 44.6 °F 87% 30.15 in 3.1 mi ENE 12.7 mph - N/A   Partly Cloudy
4:00 PM 48.2 °F - 44.6 °F 87% 30.15 in 3.7 mi ENE 10.4 mph - N/A   Scattered Clouds
4:30 PM 48.2 °F - 44.6 °F 87% 30.15 in 3.7 mi ENE 10.4 mph - N/A   Scattered Clouds
5:00 PM 48.2 °F - 44.6 °F 87% 30.15 in 4.3 mi ENE 8.1 mph - N/A   Scattered Clouds
5:30 PM 46.4 °F 42.4 °F 44.6 °F 93% 30.18 in 4.3 mi ENE 8.1 mph - N/A   Scattered Clouds
6:00 PM 48.2 °F - 44.6 °F 87% 30.18 in 4.3 mi ENE 8.1 mph - N/A   Scattered Clouds
6:30 PM 48.2 °F - 44.6 °F 87% 30.18 in 4.3 mi ENE 8.1 mph - N/A   Scattered Clouds
7:00 PM 48.2 °F - 44.6 °F 87% 30.18 in 5.0 mi ENE 8.1 mph - N/A   Scattered Clouds
7:30 PM 48.2 °F - 44.6 °F 87% 30.18 in 5.0 mi ENE 8.1 mph - N/A   Scattered Clouds
8:00 PM 48.2 °F - 44.6 °F 87% 30.18 in 5.0 mi ENE 8.1 mph - N/A   Scattered Clouds
8:30 PM 48.2 °F - 44.6 °F 87% 30.18 in 6.2 mi ENE 5.8 mph - N/A   Mostly Cloudy
9:00 PM 48.2 °F - 44.6 °F 87% 30.18 in 6.2 mi ENE 4.6 mph - N/A   Scattered Clouds
9:30 PM 48.2 °F - 46.4 °F 93% 30.18 in 6.2 mi ENE 6.9 mph - N/A   Scattered Clouds
10:00 PM 48.2 °F - 44.6 °F 87% 30.18 in 6.2 mi ENE 5.8 mph - N/A   Scattered Clouds
10:30 PM 46.4 °F 43.5 °F 44.6 °F 93% 30.18 in 6.2 mi ENE 5.8 mph - N/A   Scattered Clouds
11:00 PM 46.4 °F 43.5 °F 44.6 °F 93% 30.18 in 6.2 mi ENE 5.8 mph - N/A   Mostly Cloudy
11:30 PM 46.4 °F 43.5 °F 44.6 °F 93% 30.18 in 6.2 mi ENE 5.8 mph - N/A   Mostly Cloudy